Location: Ar Ranvel
(48.3000°N, 4.8833°W)
Time: 08:00:47
(UTC+00:00)

Cosmos 1850 Rocket - Pass Details

Date: 16 June 2021
Orbit: 755 x 785 km, 74.0° (Epoch: 01 August)

Event Time Altitude Azimuth Distance (km) Brightness Sun altitude
Rises 21:02:45 0° 339° (NNW) 3,279 8.7 -5.8°
Reaches altitude 10° 21:05:12 10° 343° (NNW) 2,343 7.7 -6.1°
Maximum altitude 21:10:27 59° 63° (ENE) 899 4.3 -6.7°
Drops below altitude 10° 21:15:38 10° 143° (SE) 2,308 5.8 -7.3°
Enters shadow 21:15:54 - 144° (SE) 2,410 5.9 -7.3°
